星链-30840 (STARLINK-30840 )

导读

STARLINK-30840是美国太空探索技术公司SpaceX星链星座的成员,于2023年11月3日发射入轨。星链项目旨在构建全球卫星互联网星座,该卫星主要为全球偏远地区、移动载体等提供低延迟宽带互联网接入服务,依托近地轨道部署,可覆盖信号盲区,补充地面通信网络覆盖能力,推动全球互联互通。

基本信息
目录编号:
58223
目录名称:
STARLINK-30840
国际标识:
2023-170T
轨道中心:
EARTH
卫星名称:
星链-30840
卫星全名:
星链-30840 (STARLINK-30840 )
卫星状态:
在轨 (已飞行1043 天)
发射日期:
2023-11-03 UTC
国别 :
美国 (US)
星等 :
--
该卫星已列入 空间交会检测服务 Space Conjunction Data Service (SCDS) ,当前飞行风险评估等级: 无高风险
轨道信息
数据来源 国际轨道数据 AOE轨道数据
星历时间 2026-09-11T07:35:21+0800
20小时前
查看轨道信息
2026-09-05T21:00:00+0800
6天前
查看轨道信息
半长轴 6861.21km 6861.173km
偏心率 0.0001036 0.0001557
轨道倾角 43.003° 43.003°
近地点辐角 271.465° 290.183°
升交点赤经 228.116° 258.848°
平近点角 88.609° 352.046°
近地点 482.362km 481.967km
远地点 483.784km 484.105km
周期 94.267分钟 94.266分钟
每日圈数 15.275721 15.275844
详细信息
固有亮度:
5
最大亮度:
0.3
卫星平台:
Starlink v2.0 mini
覆盖范围:
全球
运营商:
太空探索技术公司
运营商所在国:
美国
制造商(研发单位):
太空探索技术公司
制造商所在国:
美国
使用方式:
暂无
卫星简介
星链(Starlink)计划是由太空探索技术公司(SpaceX)提出的一个巨型低轨卫星互联网星座项目,计划在2019年至2024年间在太空搭建由约1.2万颗卫星组成的“星链”网络,其中1584颗将部署在地球上空550千米处的近地轨道,并从2020年开始工作。该卫星仍在工作。
2D轨道图
3D轨道图
轨道高度分析图
轨道倾角分析图
轨道综合分析图
查看轨道综合分析图
与全量物体交会距离演化趋势
与全量物体交会风险概率演化趋势